Location: Tel Aviv
(32.0670°N, 34.7670°E)
Time: 12:34:48
(UTC+03:00)

Explorer 11/Cluster Stage 4 - Pass Details

Date: 16 September 2024
Orbit: 464 x 1208 km, 28.8° (Epoch: 05 October)

Event Time Altitude Azimuth Distance (km) Brightness Sun altitude
Rises 06:20:30 0° 237° (WSW) 3,335 9.3 -1.9°
Reaches altitude 10° 06:22:56 10° 231° (SW) 2,516 8.7 -1.4°
Maximum altitude 06:28:46 44° 160° (SSE) 1,345 8.0 -0.2°
Drops below altitude 10° 06:35:42 10° 91° (E) 2,991 12.0 1.3°
Sets 06:38:49 0° 86° (E) 4,024 13.8 2.0°
